Location: Airon-Notre-Dame
(50.4360°N, 1.6596°E)
Time: 22:26:42
(UTC+00:00)

Daily predictions for brighter satellites

Satellite Brightness Start Highest point End
(mag) Time Altitude Azimuth Time Altitude Azimuth Time Altitude Azimuth
Cosmos 2098 Rocket 3.5 16:19:28 10° SSE 16:23:44 51° E 16:28:43 10° NNE
USA 290 2.5 16:21:49 10° NNW 16:25:06 77° WSW 16:28:19 10° SSE
Cosmos 2208 Rocket 4.4 16:20:26 10° NNW 16:25:36 72° WSW 16:30:46 10° SSE
Cosmos 1782 2.6 16:23:06 10° S 16:26:38 62° E 16:30:12 10° NNE
Cosmos 1933 4.5 16:24:05 10° SE 16:27:05 22° E 16:30:07 10° NE
Cosmos 2227 Rocket 2.3 16:23:29 10° NNW 16:29:03 55° NE 16:34:35 10° SE
Meteor 1-28 Rocket 3.7 16:26:48 10° NNE 16:29:53 33° E 16:32:56 10° SSE
Cosmos 2369 Rocket 4.1 16:28:06 10° W 16:32:19 21° NW 16:36:34 10° NNE
CBERS-1 4.0 16:27:53 10° SSE 16:32:58 70° ENE 16:38:04 10° NNW
CENTAUR R/B 3.4 16:34:56 10° W 16:40:44 44° NNW 16:48:00 10° NE
Cosmos 1697 Rocket 3.1 16:36:23 10° S 16:41:40 44° ESE 16:46:58 10° NE
Cosmos 1626 Rocket 4.1 16:38:31 10° NNW 16:42:47 61° W 16:47:00 10° S
Cosmos 2360 4.3 16:37:28 10° SSW 16:43:12 87° ESE 16:48:58 10° NNE
CZ-2D R/B 3.7 16:42:09 10° SE 16:44:48 25° ENE 16:47:28 10° N
Cosmos 2266 Rocket 3.9 16:42:28 10° N 16:48:37 69° ENE 16:54:38 10° SSE
Cosmos 1656 4.1 16:45:25 10° SW 16:51:01 66° WNW 16:56:43 10° NNE
Cosmos 2228 4.2 16:48:00 10° SW 16:52:02 41° WNW 16:56:06 10° N
Cosmos 1606 Rocket 4.0 16:48:49 10° SSE 16:52:58 41° E 16:57:08 10° NNE
Cosmos 1503 Rocket 4.0 16:49:57 10° SSW 16:55:11 75° ESE 17:00:22 10° NNE
Lacrosse 5 rocket 2.2 16:52:59 10° WNW 16:56:19 29° N 16:58:51 14° NE
UNK 3.9 16:54:21 10° NNE 16:58:49 50° E 17:03:13 10° S
CZ-4C R/B 3.5 16:52:01 10° NW 16:58:54 67° SW 17:07:26 10° SSE
Cosmos 1484 Rocket 3.3 16:56:36 10° S 17:00:02 55° W 17:03:29 10° NNW
Cosmos 1743 3.4 16:57:56 10° NNW 17:01:06 47° W 17:04:12 10° S
Thor Agena Rocket 3.5 16:56:04 10° SSE 17:01:16 87° ENE 17:06:26 10° NNW
Cosmos 1544 Rocket 4.2 16:58:01 10° SSW 17:02:22 58° WNW 17:06:46 10° N
IRS-P3 4.4 16:58:57 10° SE 17:04:00 46° ENE 17:09:04 10° N
NOSS 2-3 (D) 3.9 17:01:19 10° S 17:04:41 35° ESE 17:07:02 18° ENE
NOSS 2-3 (E) 3.8 17:01:55 10° SSW 17:05:20 38° SE 17:07:43 18° ENE
Cosmos 1354 Rocket 4.0 17:01:00 10° S 17:06:12 67° ESE 17:11:25 10° NNE
IGS 5A 3.9 17:03:36 10° S 17:07:31 62° W 17:11:29 10° NNW
NOSS 2-2 (D) 4.2 17:05:06 10° W 17:07:53 28° NW 17:10:11 13° NNE
Cosmos 1777 Rocket 4.2 17:03:10 10° SSW 17:08:25 76° WNW 17:13:41 10° NNE
Cosmos 2151 3.5 17:05:04 10° NNW 17:09:11 61° W 17:13:17 10° S
Cosmos-2242 4.2 17:06:43 10° SE 17:09:56 21° E 17:11:24 18° ENE
USA 238 DEB 4.1 17:04:31 10° S 17:10:06 39° ESE 17:14:48 16° ENE
USA 238 4.1 17:04:39 10° S 17:10:14 39° ESE 17:14:54 16° ENE
MOS 1 Rocket 3.6 17:06:01 10° SE 17:10:54 54° ENE 17:16:02 10° N
Cosmos 1898 Rocket 4.5 17:09:56 10° SSE 17:14:07 26° E 17:16:31 18° ENE
Gbstr 26 Del rocket 3.0 17:10:04 10° SW 17:14:07 57° SSE 17:16:29 21° E
Cosmos 1726 Rocket 3.8 17:10:59 10° S 17:15:28 52° E 17:19:54 10° NNE
ERS-1 4.4 17:12:03 10° SSE 17:16:59 65° ENE 17:21:54 10° N
IRIDIUM 104 4.5 17:11:54 10° N 17:17:09 79° W 17:22:21 10° S
USA 215 3.7 17:12:07 16° ENE 17:17:18 52° N 17:23:36 10° W
Cosmos 2082 4.0 17:12:03 10° NNW 17:17:33 44° NE 17:23:00 10° ESE
AQUARIUS 4.1 17:14:08 10° SSE 17:18:28 61° ENE 17:22:50 10° N
SMAP 3.2 17:15:08 10° S 17:19:47 79° WSW 17:24:29 10° NNW
Cosmos 1805 3.8 17:17:19 10° NNE 17:20:12 26° ENE 17:23:05 10° SE
Cosmos 2297 Rocket 4.1 17:16:09 10° NW 17:21:11 33° WSW 17:26:10 10° SSW
GEOS 3 Rocket 3.8 17:19:09 17° NE 17:23:15 59° SE 17:28:34 10° SSW
Landsat 7 3.7 17:19:15 10° SSE 17:23:55 90° NE 17:28:36 10° NNW
Cosmos 923 Rocket 4.4 17:21:46 10° NNW 17:26:36 37° NE 17:31:24 10° ESE
YAOGAN 1 3.2 17:23:00 10° SE 17:26:45 31° ENE 17:30:31 10° N
Cosmos 1937 Rocket 4.5 17:25:28 10° SSE 17:29:40 26° E 17:30:51 24° ENE
Okean 1-7 Rocket 4.3 17:25:49 10° NNW 17:30:07 54° W 17:34:21 10° S
SL-16 R/B 4.2 17:29:20 10° ESE 17:29:26 10° ESE 17:29:26 10° ESE
Cosmos 990 Rocket 3.9 17:28:27 10° SSW 17:33:35 88° WNW 17:38:14 13° NNE
Cosmos 1461 3.7 17:30:08 10° WSW 17:33:52 41° NW 17:36:23 18° NNE
CZ-2D R/B 3.8 17:30:52 10° SE 17:34:47 41° ENE 17:38:40 10° N
SL-16 R/B 3.2 17:28:48 10° N 17:34:51 55° WNW 17:40:51 10° SW
SKYMED 2 4.1 17:35:14 26° NE 17:37:03 37° E 17:41:05 10° SSE
COSMOS 2455 4.1 17:33:54 10° SSE 17:38:13 21° ESE 17:38:36 21° E
Okean 1 4.1 17:35:57 10° SSE 17:38:21 27° ESE 17:38:21 27° ESE
Cosmos 1844 Rocket 3.4 17:39:27 10° NNW 17:44:31 32° NE 17:45:49 29° ENE
Cosmos 2219 3.1 17:39:02 10° NNW 17:44:48 77° ENE 17:50:34 10° SSE
SJ-6F 4.3 17:41:09 10° SSE 17:45:09 85° WSW 17:49:13 10° NNW
Cosmos 1980 Rocket 2.2 17:40:23 10° SSW 17:45:57 63° ESE 17:49:21 24° NE
Cosmos 1953 Rocket 3.6 17:42:39 10° NNW 17:47:07 82° W 17:51:34 10° S
Aureole 1 Rocket 3.5 17:43:19 10° S 17:47:56 64° ESE 17:51:47 21° NNE
Meteor 1-26 Rocket 4.3 17:44:05 10° SSE 17:49:15 49° E 17:52:48 20° NNE
PSLV R/B 3.7 17:50:00 37° ESE 17:50:53 43° ENE 17:54:45 10° N
ARIANE 5 R/B 3.3 17:47:58 10° S 17:52:57 55° WSW 17:58:01 10° NNW
Cosmos 2263 Rocket 2.5 17:47:19 10° NNW 17:52:58 69° WSW 17:58:36 10° SSE
SL-19 R/B 4.3 17:48:32 10° SE 17:53:51 55° ENE 17:59:28 10° N
NOSS 3-2 (A) 4.5 17:51:48 10° W 17:56:49 34° NNW 18:00:32 19° NNE
BREEZE-M DEB (TANK) 3.9 17:54:18 10° SSW 17:57:13 23° SSE 17:57:13 23° SSE
Cosmos 1680 Rocket 3.6 17:53:18 10° NNW 17:58:22 48° ENE 18:00:24 32° ESE
COSMO-SKYMED 1 3.1 17:59:08 36° SE 17:59:08 36° SE 18:02:16 10° SSE
BREEZE-M DEB (TANK) 4.0 17:55:43 10° W 17:59:16 71° S 18:06:53 19° ESE
NOSS 3-2 (C) 3.9 17:54:26 10° WSW 17:59:35 50° NW 18:03:20 23° NNE
NOAA 15 4.5 17:55:55 10° SSE 18:01:10 73° ENE 18:06:27 10° NNW
Cosmos 1076 Rocket 4.3 17:57:30 10° NNW 18:01:43 53° W 18:05:55 10° S
Meteor 2-10 4.1 17:56:33 10° NNW 18:01:58 84° W 18:07:33 10° S
NOAA 6 4.1 17:58:13 10° SE 18:03:09 52° ENE 18:08:06 10° N
Cosmos 2369 3.9 17:58:09 10° S 18:03:39 51° ESE 18:05:20 38° ENE
Resurs 01 Rocket 3.9 18:11:53 11° N 18:11:53 11° N 18:12:08 10° N
USA 81 4.1 18:05:50 10° N 18:11:07 78° W 18:16:23 10° S
Cosmos 44 Rocket 3.6 18:06:36 10° NNW 18:11:34 47° NE 18:11:53 47° NE
Cosmos 2227 Rocket 4.1 18:07:57 10° NW 18:12:48 30° WSW 18:17:38 10° SSW
SPOT 1/Viking Rocket 3.8 18:11:49 10° S 18:17:00 69° WSW 18:22:13 10° NNW
Cosmos 2058 Rocket 3.3 18:19:47 10° SSW 18:24:14 69° WNW 18:26:26 29° N
Cosmos 1697 Rocket 3.8 18:20:27 10° WSW 18:25:41 39° NW 18:29:16 19° N
OceanSat 1 rocket 4.4 18:21:51 10° SSE 18:26:35 86° ENE 18:31:20 10° NNW
USA 281 4.4 18:28:12 23° NNE 18:28:12 23° NNE 18:32:10 10° NNW
CENTAUR R/B 4.0 18:27:15 10° WNW 18:33:16 31° N 18:35:36 26° NNE
Cosmos 2333 Rocket 4.2 18:28:46 10° SSE 18:29:35 13° SSE 18:29:35 13° SSE
Lacrosse 5 rocket 2.9 18:30:34 10° NW 18:32:26 24° NNW 18:32:26 24° NNW
Meteor 2-11 Rocket 4.3 18:27:50 10° N 18:34:03 86° ENE 18:40:13 10° S
Cosmos 2278 Rocket 4.4 18:31:48 10° N 18:32:43 11° N 18:32:43 11° N
NOSS 2-3 (C) 4.1 18:31:59 10° WSW 18:34:52 42° WNW 18:34:52 42° WNW
Meteor 1-14 Rocket 4.1 18:32:29 10° N 18:38:16 73° ENE 18:39:10 61° SE
Resurs 1-3 4.3 18:39:43 10° S 18:43:54 50° W 18:48:07 10° NNW
Cosmos-2242 4.0 18:42:37 10° SSW 18:46:41 43° WNW 18:47:46 36° NW
Cosmos 1844 3.9 18:50:01 10° NNW 18:54:37 60° N 18:54:37 60° N
Cosmos 1898 Rocket 4.1 18:50:44 10° SW 18:55:47 53° WNW 18:56:45 46° NNW
USA 215 3.3 18:59:28 58° NNE 18:59:48 58° NNE 19:06:13 10° WNW
Cosmos 2112 Rocket 4.2 18:54:54 10° NNW 18:59:47 69° W 18:59:47 69° W
USA 238 DEB 3.9 18:54:36 10° WSW 19:00:45 60° NW 19:02:15 49° N
USA 238 3.9 18:54:41 10° WSW 19:00:52 60° NW 19:02:21 49° N
Cosmos 1553 Rocket 4.4 18:55:02 10° SSW 19:01:09 62° WNW 19:07:26 10° N
YAOGAN 1 4.2 18:58:44 10° SSW 19:02:34 32° W 19:06:26 10° NNW
BREEZE-M DEB (TANK) 4.1 19:01:38 10° SW 19:06:16 39° SSW 19:06:16 39° SSW
Cosmos 1937 Rocket 4.1 19:06:10 10° SW 19:10:58 52° WNW 19:10:58 52° WNW
Meteor 2-6 Rocket 4.4 19:05:52 10° SSW 19:11:33 70° WNW 19:11:38 70° WNW
Cosmos 2227 4.5 19:07:18 10° NNW 19:12:30 64° W 19:12:30 64° W
SL-16 R/B 3.6 19:08:53 10° SSW 19:11:20 27° SSW 19:11:20 27° SSW
Cosmos 1745 Rocket 4.2 19:09:57 10° NNW 19:16:05 67° W 19:22:08 10° S
COSMOS 2455 3.4 19:17:22 10° SW 19:21:46 51° SW 19:21:46 51° SW
Cosmos 1844 Rocket 3.5 19:23:10 10° NW 19:27:31 48° WNW 19:27:31 48° WNW
Cosmos 1980 Rocket 3.7 19:25:24 10° WSW 19:30:20 30° NW 19:31:07 29° NNW
CENTAUR R/B 4.3 20:18:46 10° NW 20:22:42 30° NNW 20:22:42 30° NNW
